When you browse on this site, cookies collect data to enhance your experience and personalize the content and advertising you see.
Visit our Privacy Policy to learn more. By continuing to use the site, you agree to this use of cookies and data.
  • In Hungary
  • List of Countries
  • For 7 days
  • Water Temperature
  • Weather Map
  • News
  • Weather Widgets
  • user-avatar
    Login

    Hourly Weather Baca

    Today, 18 November, Monday

    Time Temperature Precipitation Wind Pressure Humidity
    00:00 +17°C° 0 mm 0 mps 759 mmHg 74%
    01:00 +19°C° 0 mm 1 mps 759 mmHg 75%
    02:00 +19°C° 0 mm 1 mps 759 mmHg 76%
    03:00 +19°C° 0 mm 1 mps 759 mmHg 77%
    04:00 +19°C° 0 mm 1 mps 759 mmHg 77%
    05:00 +19°C° 0 mm 1 mps 760 mmHg 77%
    06:00 +19°C° 0 mm 1 mps 760 mmHg 77%
    07:00 +21°C° 0 mm 1 mps 760 mmHg 70%
    08:00 +24°C° 0 mm 1 mps 760 mmHg 63%
    09:00 +26°C° 0 mm 1 mps 761 mmHg 55%
    10:00 +26°C° 0 mm 2 mps 760 mmHg 54%
    11:00 +26°C° 0 mm 2 mps 760 mmHg 53%
    12:00 +27°C° 0 mm 2 mps 759 mmHg 51%
    13:00 +27°C° 0 mm 2 mps 759 mmHg 52%
    14:00 +27°C° 0 mm 2 mps 758 mmHg 52%
    15:00 +27°C° 0 mm 2 mps 758 mmHg 52%
    16:00 +25°C° 0 mm 2 mps 758 mmHg 58%
    17:00 +23°C° 0 mm 2 mps 758 mmHg 64%
    18:00 +21°C° 0 mm 1 mps 759 mmHg 70%
    19:00 +21°C° 0 mm 1 mps 759 mmHg 72%
    20:00 +21°C° 0 mm 1 mps 759 mmHg 73%
    21:00 +20°C° 0 mm 1 mps 760 mmHg 75%
    22:00 +18°C° 0 mm 0 mps 760 mmHg 75%
    23:00 +18°C° 0 mm 0 mps 760 mmHg 76%

    Tomorrow, 19 November, Tuesday

    Time Temperature Precipitation Wind Pressure Humidity
    00:00 +18°C° 0 mm 0 mps 760 mmHg 76%
    01:00 +18°C° 0 mm 0 mps 760 mmHg 77%
    02:00 +18°C° 0 mm 0 mps 759 mmHg 77%
    03:00 +18°C° 0 mm 0 mps 759 mmHg 78%
    04:00 +17°C° 0 mm 0 mps 759 mmHg 79%
    05:00 +17°C° 0 mm 0 mps 760 mmHg 79%
    06:00 +17°C° 0 mm 0 mps 760 mmHg 80%
    07:00 +19°C° 0 mm 0 mps 761 mmHg 73%
    08:00 +21°C° 0 mm 0 mps 761 mmHg 67%
    09:00 +23°C° 0 mm 0 mps 761 mmHg 61%
    10:00 +24°C° 0 mm 0 mps 761 mmHg 57%
    11:00 +27°C° 0 mm 1 mps 761 mmHg 53%
    12:00 +28°C° 0 mm 2 mps 760 mmHg 49%
    13:00 +28°C° 0 mm 2 mps 760 mmHg 51%
    14:00 +27°C° 0 mm 2 mps 760 mmHg 53%
    15:00 +27°C° 0 mm 3 mps 759 mmHg 55%
    16:00 +25°C° 0 mm 2 mps 759 mmHg 61%
    17:00 +24°C° 0 mm 2 mps 760 mmHg 67%
    18:00 +21°C° 0 mm 2 mps 760 mmHg 73%
    19:00 +20°C° 0 mm 2 mps 760 mmHg 74%
    20:00 +21°C° 0 mm 1 mps 761 mmHg 75%
    21:00 +20°C° 0 mm 1 mps 761 mmHg 77%
    22:00 +20°C° 0 mm 1 mps 761 mmHg 80%
    23:00 +20°C° 0 mm 1 mps 761 mmHg 82%

    Day after tomorrow, 20 November, Wednesday

    Time Temperature Precipitation Wind Pressure Humidity
    00:00 +19°C° 0 mm 1 mps 761 mmHg 85%
    01:00 +19°C° 0 mm 1 mps 761 mmHg 88%
    02:00 +18°C° 0 mm 1 mps 761 mmHg 91%
    03:00 +18°C° 0 mm 1 mps 761 mmHg 93%
    04:00 +18°C° 0 mm 1 mps 761 mmHg 91%
    05:00 +18°C° 0 mm 1 mps 761 mmHg 89%
    06:00 +18°C° 0 mm 1 mps 761 mmHg 87%
    07:00 +19°C° 0 mm 2 mps 762 mmHg 77%
    08:00 +23°C° 0 mm 2 mps 762 mmHg 67%
    09:00 +25°C° 0 mm 2 mps 763 mmHg 57%
    10:00 +26°C° 0 mm 2 mps 762 mmHg 52%
    11:00 +28°C° 0 mm 2 mps 761 mmHg 47%
    12:00 +29°C° 0 mm 2 mps 761 mmHg 42%
    13:00 +29°C° 0 mm 2 mps 760 mmHg 42%
    14:00 +29°C° 0 mm 2 mps 759 mmHg 42%
    15:00 +29°C° 0 mm 2 mps 759 mmHg 42%
    16:00 +27°C° 0 mm 2 mps 759 mmHg 52%
    17:00 +25°C° 0 mm 2 mps 759 mmHg 61%
    18:00 +22°C° 0 mm 3 mps 760 mmHg 71%
    19:00 +22°C° 0 mm 3 mps 760 mmHg 74%
    20:00 +21°C° 0 mm 3 mps 760 mmHg 78%
    21:00 +21°C° 0 mm 3 mps 761 mmHg 81%
    22:00 +20°C° 0 mm 2 mps 761 mmHg 84%
    23:00 +20°C° 0 mm 2 mps 761 mmHg 88%

    21 November, Thursday

    Time Temperature Precipitation Wind Pressure Humidity
    00:00 +19°C° 0 mm 2 mps 761 mmHg 91%
    01:00 +19°C° 0 mm 2 mps 761 mmHg 91%
    02:00 +19°C° 0 mm 2 mps 760 mmHg 92%
    03:00 +19°C° 0 mm 1 mps 760 mmHg 93%
    04:00 +19°C° 0 mm 1 mps 760 mmHg 92%
    05:00 +18°C° 0 mm 2 mps 760 mmHg 92%
    06:00 +19°C° 0 mm 2 mps 760 mmHg 91%
    07:00 +21°C° 0 mm 2 mps 761 mmHg 83%
    08:00 +24°C° 0 mm 2 mps 761 mmHg 74%
    09:00 +26°C° 0 mm 2 mps 761 mmHg 65%
    10:00 +28°C° 0 mm 3 mps 761 mmHg 61%
    11:00 +29°C° 0 mm 3 mps 760 mmHg 57%
    12:00 +31°C° 0 mm 3 mps 759 mmHg 52%
    13:00 +31°C° 0 mm 3 mps 759 mmHg 54%
    14:00 +31°C° 0 mm 3 mps 758 mmHg 55%
    15:00 +31°C° 0 mm 3 mps 758 mmHg 56%
    16:00 +29°C° 0.1 mm 3 mps 758 mmHg 66%
    17:00 +27°C° 0.1 mm 3 mps 758 mmHg 76%
    18:00 +25°C° 0.1 mm 3 mps 758 mmHg 85%
    19:00 +25°C° 0 mm 3 mps 759 mmHg 87%
    20:00 +24°C° 0 mm 3 mps 759 mmHg 89%
    21:00 +24°C° 0 mm 3 mps 759 mmHg 90%
    22:00 +22°C° 0 mm 3 mps 759 mmHg 92%
    23:00 +23°C° 0 mm 2 mps 759 mmHg 93%

    22 November, Friday

    Time Temperature Precipitation Wind Pressure Humidity
    00:00 +21°C° 0 mm 2 mps 759 mmHg 94%
    01:00 +21°C° 0 mm 2 mps 759 mmHg 95%
    02:00 +21°C° 0 mm 2 mps 758 mmHg 96%
    03:00 +20°C° 0 mm 2 mps 758 mmHg 96%
    04:00 +20°C° 0 mm 2 mps 758 mmHg 97%
    05:00 +20°C° 0 mm 2 mps 759 mmHg 97%
    06:00 +20°C° 0 mm 2 mps 759 mmHg 98%
    07:00 +23°C° 0 mm 2 mps 759 mmHg 89%
    08:00 +26°C° 0 mm 2 mps 759 mmHg 81%
    09:00 +28°C° 0 mm 2 mps 760 mmHg 73%
    10:00 +29°C° 0 mm 2 mps 759 mmHg 68%
    11:00 +31°C° 0 mm 2 mps 759 mmHg 63%
    12:00 +32°C° 0 mm 2 mps 758 mmHg 58%
    13:00 +32°C° 0.1 mm 2 mps 757 mmHg 60%
    14:00 +32°C° 0.1 mm 2 mps 757 mmHg 61%
    15:00 +32°C° 0.1 mm 2 mps 756 mmHg 62%
    16:00 +30°C° 0.2 mm 2 mps 756 mmHg 72%
    17:00 +28°C° 0.2 mm 2 mps 757 mmHg 82%
    18:00 +26°C° 0.2 mm 2 mps 757 mmHg 91%
    19:00 +26°C° 0.2 mm 2 mps 757 mmHg 93%
    20:00 +26°C° 0.2 mm 2 mps 758 mmHg 95%
    21:00 +25°C° 0.2 mm 2 mps 758 mmHg 96%
    22:00 +25°C° 0.1 mm 2 mps 758 mmHg 97%
    23:00 +25°C° 0.1 mm 2 mps 758 mmHg 97%

    23 November, Saturday

    Time Temperature Precipitation Wind Pressure Humidity
    00:00 +24°C° 0.1 mm 1 mps 758 mmHg 98%
    01:00 +24°C° 0 mm 1 mps 758 mmHg 98%
    02:00 +24°C° 0 mm 1 mps 758 mmHg 98%
    03:00 +24°C° 0 mm 1 mps 758 mmHg 98%
    04:00 +24°C° 0 mm 1 mps 758 mmHg 98%
    05:00 +24°C° 0 mm 1 mps 758 mmHg 98%
    06:00 +24°C° 0 mm 1 mps 759 mmHg 97%
    07:00 +25°C° 0 mm 1 mps 759 mmHg 93%
    08:00 +27°C° 0 mm 1 mps 759 mmHg 88%
    09:00 +28°C° 0 mm 1 mps 760 mmHg 83%
    10:00 +30°C° 0 mm 2 mps 760 mmHg 74%
    11:00 +31°C° 0 mm 2 mps 759 mmHg 64%
    12:00 +33°C° 0 mm 3 mps 759 mmHg 55%
    13:00 +33°C° 0 mm 3 mps 758 mmHg 57%
    14:00 +32°C° 0 mm 4 mps 758 mmHg 60%
    15:00 +30°C° 0 mm 4 mps 757 mmHg 63%
    16:00 +29°C° 0 mm 3 mps 758 mmHg 70%
    17:00 +27°C° 0 mm 3 mps 758 mmHg 78%
    18:00 +25°C° 0 mm 2 mps 759 mmHg 85%
    19:00 +25°C° 0 mm 2 mps 759 mmHg 87%
    20:00 +25°C° 0 mm 2 mps 760 mmHg 88%
    21:00 +24°C° 0 mm 2 mps 760 mmHg 89%
    22:00 +24°C° 0.1 mm 2 mps 760 mmHg 90%
    23:00 +24°C° 0.1 mm 2 mps 760 mmHg 91%
    Show more